Regional Weather Roundup
Issued by NWS

Home | Current Version | Previous Version | Graphics & Text | Print | Product List | Glossary On
Versions: 1 2 3 4 5 6 7 8 9 10 11 12 13 14 15 16 17 18 19 20 21 22 23 24 25 26 27 28 29 30 31 32 33 34 35 36 37 38 39 40 41 42 43 44 45 46 47 48 49 50
000
ASUS43 KDTX 201401
RWRMI
MICHIGAN HOURLY REGIONAL WEATHER ROUNDUP
NATIONAL WEATHER SERVICE DETROIT/PONTIAC MI
1000 AM EDT WED AUG 20 2014

NOTE: "FAIR" INDICATES FEW OR NO CLOUDS BELOW 12,000 FEET WITH NO
SIGNIFICANT WEATHER AND/OR OBSTRUCTION TO VISIBILITY.

MIZ047>049-052>055-059>063-066>070-074>076-081>083-201500-
SOUTHEAST LOWER MICHIGAN

CITY           SKY/WX    TMP DP  RH WIND       PRES   REMARKS
ADRIAN         PTSUNNY   70  67  90 W7        29.87R
ALMA           CLOUDY    68  67  97 SW3       29.85R
ANN ARBOR      CLOUDY    71  66  84 NW5       29.86R
BAD AXE        MOSUNNY   70  67  92 S5        29.84S
CARO           CLOUDY    68  66  94 SW6       29.84R FOG
DETROIT CITY   CLOUDY    73  67  81 CALM      29.85R
DETROIT        CLOUDY    70  66  87 CALM      29.86R FOG
FLINT          CLOUDY    70  66  87 CALM      29.85R FOG
GROSSE ILE     PTSUNNY   70  66  88 W3        29.85R FOG
HILLSDALE      MOSUNNY   71  70  98 NW3       29.88S FOG
HOWELL         CLOUDY    68  67  96 W6        29.86R FOG

CITY           SKY/WX    TMP DP  RH WIND       PRES   REMARKS
JACKSON        CLOUDY    70  67  90 W5        29.87R
LAMBERTVILLE   CLOUDY    72  66  83 W5        29.87R HAZE
LANSING        CLOUDY    69  66  90 W5        29.86R FOG
LAPEER         CLOUDY    67  65  93 W3        29.85R FOG
MASON          CLOUDY    68  65  91 CALM      29.86S FOG
MONROE         CLOUDY    72  66  83 W6        29.84S FOG
MT. CLEMENS    CLOUDY    72  67  82 VRB3      29.83S FOG
PONTIAC        PTSUNNY   69  65  86 W6        29.85R
PORT HOPE        N/A     71  65  81 SW6       29.81S
PORT HURON     CLOUDY    72  70  94 S6        29.85R
TRI CITIES     CLOUDY    71  66  84 SW5       29.84R FOG
TROY           CLOUDY    71  66  86 CALM      29.86S HAZE
SAGINAW HB     CLOUDY    70  70 100 W5        29.84R
$$
MIZ043>046-050>051-056>058-064>065-071>073-077>080-201500-
SOUTHWEST LOWER MICHIGAN

CITY           SKY/WX    TMP DP  RH WIND       PRES   REMARKS
BATTLE CREEK   SUNNY     73  65  75 NW7       29.87S
BENTON HARBOR  SUNNY     73  64  73 W5        29.86R
BIG RAPIDS     PTSUNNY   69  67  93 W3        29.84R
COLDWATER      PTSUNNY   71  68  90 W3        29.88S FOG
FREMONT        CLOUDY    66  65  98 CALM      29.84R FOG
HOLLAND        SUNNY     74  66  76 W3        29.85S
GRAND RAPIDS   MOSUNNY   73  69  87 W8        29.85S
IONIA          FAIR      71  67  87 W3        29.84S
KALAMAZOO      SUNNY     74  65  73 W3        29.86S
LUDINGTON      CLOUDY    64  64  97 N3        29.84R
MARSHALL       MOSUNNY   71  67  87 CALM      29.86S
MOUNT PLEASANT CLOUDY    71  66  84 CALM      29.83S
MUSKEGON       MOSUNNY   71  65  81 W5        29.84S
SOUTH HAVEN    SUNNY     74  67  79 CALM      29.86R
$$
MIZ016>042-201500-
NORTHERN LOWER MICHIGAN

CITY           SKY/WX    TMP DP  RH WIND       PRES   REMARKS
ALPENA         CLOUDY    70  67  90 CALM      29.81R
BEAVER ISLAND  FOG       62  62  99 N6        29.80R VSB 1
BELLAIRE       CLOUDY    67  62  82 W5        29.81R
CADILLAC       CLOUDY    67  64  90 W5        29.84S
CHARLEVOIX     CLOUDY    64  64 100 SW8       29.83R FOG
FRANKFORT      CLOUDY    67  62  83 NW3       29.82S
GAYLORD        CLOUDY    64  62  93 W6        29.83R
GRAYLING       CLOUDY    67  67 100 W6        29.84R
HARBOR SPRINGS CLOUDY    65  64  94 CALM      29.81R
HOUGHTON LAKE  PTSUNNY   70  63  78 W6        29.83R
MANISTEE       CLOUDY    64  61  88 NW5       29.84R
OSCODA         CLOUDY    69  67  93 SW7       29.81S
PELLSTON       CLOUDY    65  63  93 CALM      29.81R
ROGERS CITY    FOG       64  64 100 MISG      29.81F VSB 1/2
TRAVERSE CITY  CLOUDY    67  62  84 W5        29.81R
$$
MIZ007>008-015-201500-
EASTERN UPPER MICHIGAN

CITY           SKY/WX    TMP DP  RH WIND       PRES   REMARKS
KINROSS        CLOUDY    63  63 100 SE7       29.81R VSB 1/2
MACKINAC ISLAN RAIN      61  61 100 CALM      29.80S
NEWBERRY       CLOUDY    60  60 100 CALM      29.81R FOG
S. S. MARIE    FOG       63  62  97 E5        29.80R VSB 3/4
$$
MIZ004>006-011>014-085-201500-
CENTRAL UPPER MICHIGAN

CITY           SKY/WX    TMP DP  RH WIND       PRES   REMARKS
MANISTIQUE     CLOUDY    60  60  99 N8        29.81S
ESCANABA       CLOUDY    61  57  88 NW6       29.82S
MENOMINEE      CLOUDY    63  57  82 N6        29.83R
SAWYER-GWINN   CLOUDY    59  59 100 N5        29.84R
$$
MIZ001>003-009>011-084-201500-
WESTERN UPPER MICHIGAN

CITY           SKY/WX    TMP DP  RH WIND       PRES   REMARKS
IRON MOUNTAIN  CLOUDY    61  57  87 NW8       29.83S
HOUGHTON       FOG       58  56  93 NW8       29.84R VSB<1/4
COPPER HARBOR    N/A     54  53  97 N8        29.82R
IRONWOOD       CLOUDY    57  57 100 W5        29.87R VSB 3/4
$$

ABBREVIATIONS USED IN REMARKS
   TC - TEMPERATURE IN CELSIUS
  WCI - WIND CHILL INDEX
   HX - HEAT INDEX
  VSB - VISIBILITY



USA.gov is the U.S. government's official web portal to all federal, state and local government web resources and services.